Location: Newark
(40.9833°N, 0.0333°W)
Time: 02:25:24
(UTC+00:00)

deb Explorer IX - Pass Details

Date: 28 October 2020
Orbit: 537 x 1105 km, 38.8° (Epoch: 02 December)

Event Time Altitude Azimuth Distance (km) Brightness Sun altitude
Rises 05:09:58 0° 231° (SW) 3,307 - -15.0°
Exits shadow 05:11:49 - 226° (SW) 2,666 ? -14.7°
Reaches altitude 10° 05:12:25 10° 224° (SW) 2,466 ? -14.6°
Maximum altitude 05:18:00 42° 155° (SSE) 1,305 ? -13.5°
Drops below altitude 10° 05:24:23 10° 86° (E) 2,825 ? -12.3°
Sets 05:27:21 0° 81° (E) 3,838 ? -11.8°
